Regional Weather Roundup
Issued by NWS Spokane, WA

Home | Current Version | Previous Version | Text Only | Print | Product List | Glossary On
Versions: 1 2 3 4 5 6 7 8 9 10 11 12 13 14 15 16 17 18 19 20 21 22 23 24 25 26 27 28 29 30 31 32 33 34 35 36 37 38 39 40 41 42 43 44 45 46 47 48 49 50
000
NZUS01 KOTX 032257
RWROTX
EASTERN WASHINGTON/NORTHERN IDAHO ROUNDUP
NATIONAL WEATHER SERVICE, SPOKANE WA
400 PM PDT FRI JUL 03 2015

Note: "fair" indicated few or no clouds below 12,000 feet with no
significant weather and/or obstructions to visibility.

...NORTHEAST WASHINGTON AND NORTHERN IDAHO PANHANDLE...

CITY           SKY/WX    TMP DP  RH WIND       PRES   REMARKS
SPOKANE INTL   MOSUNNY   99  40  13 W8G20     29.83F HX  94
SPOKANE DOWNTO SUNNY    101  39  12 SW14G22   29.80F HX  96
DEER PARK      SUNNY     99  42  14 SW10G17   29.81F HX  94

...SOUTHEAST WASHINGTON AND SOUTHERN IDAHO PANHANDLE...

CITY           SKY/WX    TMP DP  RH WIND       PRES   REMARKS
WALLA WALLA    SUNNY    103  33   9 CALM      29.77F HX  96
PULLMAN/MOSCOW SUNNY     95  39  14 SW6       29.88F HX  91
LOWELL           N/A     99  52  20 CALM      29.77F HX  96

...COLUMBIA BASIN...

CITY           SKY/WX    TMP DP  RH WIND       PRES   REMARKS
EPHRATA        SUNNY    103  41  12 W9G21     29.75F HX  98
MOSES LAKE     SUNNY    104  33   8 W9        29.76F HX  97
TRI CITIES     SUNNY    105  44  12 W6        29.71F HX 100
HERMISTON      SUNNY    103  41  12 N6        29.73F HX  98
PENDLETON      SUNNY    102  39  11 MISG      29.79F HX  97

...EAST SLOPES CASCADES...

CITY           SKY/WX    TMP DP  RH WIND       PRES   REMARKS
THE DALLES     SUNNY     99  54  22 NW17      29.73F HX  97
YAKIMA         SUNNY    105  43  12 VRB5      29.75F HX 100
ELLENSBURG     SUNNY    101  33   9 NW25G32   29.80F HX  95
OMAK           MOSUNNY  104  36   9 SW6       29.73F HX  98

...SOUTHERN BRITISH COLUMBIA...

CITY           SKY/WX    TMP DP  RH WIND       PRES   REMARKS

...WESTERN MONTANA...

CITY           SKY/WX    TMP DP  RH WIND       PRES   REMARKS
MISSOULA       SUNNY     95  36  12 NW10G22   29.86F HX  90

...NEIGHBORING CITIES...

CITY           SKY/WX    TMP DP  RH WIND       PRES   REMARKS
SEATTLE        SUNNY     90  52  27 W6        29.90F



USA.gov is the U.S. government's official web portal to all federal, state and local government web resources and services.